Location: Bridgewater
(44.3670°N, 64.5170°W)
Time: 12:51:08
(UTC-03:00)

Amateur Radio Satellites - All Passes

Search period start: 30 October 2014 12:21
Search period end: 31 October 2014 12:21
Location: Bridgewater, 44.3670°N, 64.5170°W

Satellite Date Start Highest point End Downlink Frequencies (MHz)
Time Altitude Azimuth
ISS 30 Oct 12:32:00 12:35:14 48° 336° (NNW) 12:38:30 145.800 FM
Oscar 19 30 Oct 12:36:18 12:39:39 18° 60° (ENE) 12:42:59 437.125 CW, 437.150 USB
HO-68 30 Oct 12:39:39 12:44:13 18° 309° (NW) 12:48:46 435.675 MHz FM
Sapphire 30 Oct 12:42:00 12:47:23 63° 243° (WSW) 12:52:43 437.095 MHz 1200 baud AX-25 AFSK
Oscar 11 30 Oct 12:46:38 12:48:05 12° 300° (WNW) 12:49:31 145.825 FM, Beacon 2401.500 USB
SO-50 30 Oct 12:48:32 12:52:59 58° 309° (NW) 12:57:36 436.795 FM
FUNcube-1 30 Oct 12:59:00 13:01:46 17° 297° (WNW) 13:04:29 145.950 - 145.970 MHz USB
PCSat 30 Oct 13:04:06 13:09:06 38° 248° (WSW) 13:14:04 145.825 MHz
AO-27 30 Oct 13:09:47 13:12:51 16° 58° (ENE) 13:15:56 436.795 MHz FM
Gurwin Techsat 1B 30 Oct 13:20:31 13:21:36 11° 54° (NE) 13:22:41 435.225 FM
Oscar 16 30 Oct 13:21:16 13:26:07 43° 69° (ENE) 13:30:58 437.025 USB, Beacon 2401.1428
JAS-1B 30 Oct 13:23:59 13:29:20 42° 67° (ENE) 13:34:43 435.800 - 435.900 CW/SSB
KITSAT 1 30 Oct 13:24:31 13:32:05 42° 316° (NW) 13:39:43 435.175 FM
UOSAT-12 30 Oct 13:38:57 13:43:26 50° 119° (ESE) 13:48:00 437.025 FM, 437.400 FM
Uribyol 2 30 Oct 13:52:06 13:56:51 37° 67° (ENE) 14:01:38 436.500 FM
ITAMSAT 1 30 Oct 13:59:38 14:04:28 40° 68° (ENE) 14:09:20 435.822 SSB
AO-Echo 30 Oct 14:05:53 14:10:45 56° 71° (ENE) 14:15:48 ?
ISS 30 Oct 14:09:44 14:12:29 23° 356° (N) 14:15:14 145.800 FM
Oscar 19 30 Oct 14:13:20 14:18:27 68° 258° (WSW) 14:23:35 437.125 CW, 437.150 USB
AO-7 30 Oct 14:15:36 14:20:22 17° 44° (NE) 14:25:09 29.400 - 29.500 MHz
Saudisat 1A 30 Oct 14:21:18 14:25:12 29° 44° (NE) 14:29:04 436.775 MHz
SO-50 30 Oct 14:32:19 14:34:34 13° 331° (NNW) 14:36:51 436.795 FM
AO-27 30 Oct 14:46:29 14:51:43 79° 256° (WSW) 14:56:59 436.795 MHz FM
Gurwin Techsat 1B 30 Oct 14:55:19 15:00:34 67° 73° (ENE) 15:05:52 435.225 FM
Oscar 16 30 Oct 15:01:24 15:05:38 25° 266° (W) 15:09:52 437.025 USB, Beacon 2401.1428
TMSAT-1 30 Oct 15:02:32 15:07:43 59° 71° (ENE) 15:12:57 436.925 FM
JAS-1B 30 Oct 15:15:32 15:20:18 26° 266° (W) 15:25:03 435.800 - 435.900 CW/SSB
UOSAT-12 30 Oct 15:19:52 15:23:49 27° 319° (NW) 15:27:51 437.025 FM, 437.400 FM
KITSAT 1 30 Oct 15:24:52 15:30:00 18° 343° (NNW) 15:35:10 435.175 FM
Uribyol 2 30 Oct 15:31:46 15:36:21 31° 264° (W) 15:40:58 436.500 FM
ITAMSAT 1 30 Oct 15:39:38 15:44:04 28° 265° (W) 15:48:32 435.822 SSB
AO-Echo 30 Oct 15:46:24 15:49:54 19° 270° (W) 15:53:30 ?
ISS 30 Oct 15:46:50 15:49:51 31° 16° (NNE) 15:52:52 145.800 FM
Uosat F 30 Oct 15:57:01 16:01:20 29° 65° (ENE) 16:05:40 435.120 FM
Saudisat 1A 30 Oct 16:00:44 16:04:51 38° 243° (WSW) 16:08:56 436.775 MHz
AO-7 30 Oct 16:03:29 16:11:36 64° 66° (ENE) 16:19:46 29.400 - 29.500 MHz
Gurwin Techsat 1B 30 Oct 16:37:41 16:41:02 17° 270° (W) 16:44:24 435.225 FM
TMSAT-1 30 Oct 16:44:17 16:48:02 19° 269° (W) 16:51:48 436.925 FM
JAS-2 30 Oct 17:02:35 17:08:25 39° 63° (ENE) 17:14:56 435.800 - 435.900 CW/SSB, 435.910 FM
ISS 30 Oct 17:23:26 17:26:45 64° 215° (SW) 17:30:03 145.800 FM
KITSAT 1 30 Oct 17:24:18 17:29:15 17° 14° (NNE) 17:34:11 435.175 FM
Uosat F 30 Oct 17:35:22 17:39:59 37° 263° (W) 17:44:40 435.120 FM
Hamsat 30 Oct 17:50:58 17:54:59 47° 72° (ENE) 17:59:00 145.90 MHz
AO-7 30 Oct 17:57:49 18:04:53 31° 265° (W) 18:12:00 29.400 - 29.500 MHz
OPAL 30 Oct 17:58:58 18:03:07 26° 97° (E) 18:07:13 ?
AO-40 30 Oct 18:36:17 00:25:07 41° 183° (S) 06:08:38 Beacon 2401.320
JAS-2 30 Oct 18:47:30 18:53:23 42° 265° (W) 19:00:03 435.800 - 435.900 CW/SSB, 435.910 FM
KITSAT 1 30 Oct 19:19:53 19:27:21 39° 42° (NE) 19:34:46 435.175 FM
SO-67 30 Oct 19:23:19 19:26:42 64° 75° (ENE) 19:30:08 435.3500 MHz FM
Hamsat 30 Oct 19:28:37 19:31:11 16° 269° (W) 19:33:46 145.90 MHz
HO-68 30 Oct 19:35:23 19:40:22 21° 53° (NE) 19:45:22 435.675 MHz FM
OPAL 30 Oct 19:37:30 19:42:07 40° 294° (WNW) 19:46:42 ?
SO-50 30 Oct 19:38:16 19:42:36 32° 44° (NE) 19:46:57 436.795 FM
STRAND 1 30 Oct 19:53:10 19:58:10 48° 99° (E) 20:03:06 ?
UOSAT-12 30 Oct 20:27:56 20:30:41 15° 32° (NNE) 20:33:25 437.025 FM, 437.400 FM
KITSAT 1 30 Oct 21:15:15 21:23:11 62° 244° (WSW) 21:31:04 435.175 FM
RS-15 30 Oct 21:17:25 21:27:42 48° 111° (ESE) 21:37:55 29.354 - 29.394 USB, Beacon 29.352 USB
SO-50 30 Oct 21:18:42 21:23:16 42° 242° (WSW) 21:27:52 436.795 FM
HO-68 30 Oct 21:19:59 21:27:09 90° 75° (ENE) 21:34:24 435.675 MHz FM
UKube-1 30 Oct 21:29:10 21:33:08 36° 69° (ENE) 21:37:09 145.840 MHz, 145.915 MHz
STRAND 1 30 Oct 21:32:59 21:37:03 24° 297° (WNW) 21:41:06 ?
ZACube-1 30 Oct 21:37:27 21:40:38 19° 64° (ENE) 21:43:46 437.345 MHz
MaSat-1 30 Oct 21:58:13 22:00:25 15° 107° (ESE) 22:02:31 437.345 MHz
Oscar 11 30 Oct 22:04:32 22:08:50 76° 75° (ENE) 22:13:10 145.825 FM, Beacon 2401.500 USB
UOSAT-12 30 Oct 22:06:59 22:11:43 69° 53° (NE) 22:16:21 437.025 FM, 437.400 FM
FUNcube-1 30 Oct 22:19:08 22:23:29 48° 72° (ENE) 22:27:45 145.950 - 145.970 MHz USB
Oscar 10/S400 30 Oct 22:47:44 23:40:44 37° 216° (SW) 04:56:02 145.825 - 145.975 CW/USB, Beacon 145.810 USB
UKube-1 30 Oct 23:05:58 23:09:25 23° 266° (W) 23:12:54 145.840 MHz, 145.915 MHz
HO-68 30 Oct 23:11:20 23:15:47 17° 271° (W) 23:20:17 435.675 MHz FM
ZACube-1 30 Oct 23:12:18 23:16:42 48° 261° (W) 23:21:01 437.345 MHz
KITSAT 1 30 Oct 23:14:47 23:16:55 11° 263° (W) 23:19:04 435.175 FM
RS-15 30 Oct 23:29:10 23:39:53 57° 315° (NW) 23:50:41 29.354 - 29.394 USB, Beacon 29.352 USB
MaSat-1 30 Oct 23:31:54 23:35:36 44° 301° (WNW) 23:38:56 437.345 MHz
Oscar 11 30 Oct 23:44:47 23:45:32 10° 272° (W) 23:46:18 145.825 FM, Beacon 2401.500 USB
UOSAT-12 30 Oct 23:48:28 23:51:19 16° 251° (WSW) 23:54:08 437.025 FM, 437.400 FM
FUNcube-1 30 Oct 23:56:58 00:00:05 18° 268° (W) 00:03:10 145.950 - 145.970 MHz USB
JAS-1B 31 Oct 01:06:46 01:09:22 12° 87° (E) 01:12:06 435.800 - 435.900 CW/SSB
Oscar 16 31 Oct 01:33:05 01:35:21 13° 88° (E) 01:37:36 437.025 USB, Beacon 2401.1428
Sapphire 31 Oct 01:45:32 01:47:50 13° 102° (ESE) 01:50:09 437.095 MHz 1200 baud AX-25 AFSK
RS-15 31 Oct 01:46:23 01:55:18 27° 347° (NNW) 02:04:23 29.354 - 29.394 USB, Beacon 29.352 USB
PCSat 31 Oct 02:05:16 02:09:17 22° 107° (ESE) 02:13:19 145.825 MHz
Uribyol 2 31 Oct 02:05:58 02:06:59 11° 87° (E) 02:08:01 436.500 FM
AO-Echo 31 Oct 02:12:31 02:15:59 17° 90° (E) 02:19:25 ?
ITAMSAT 1 31 Oct 02:12:55 02:14:52 12° 88° (E) 02:16:49 435.822 SSB
Oscar 19 31 Oct 02:23:26 02:28:11 37° 97° (E) 02:32:55 437.125 CW, 437.150 USB
JAS-1B 31 Oct 02:53:49 03:00:50 68° 103° (ESE) 03:09:14 435.800 - 435.900 CW/SSB
AO-27 31 Oct 02:58:14 03:02:56 33° 96° (E) 03:07:36 436.795 MHz FM
Oscar 16 31 Oct 03:10:11 03:15:20 82° 286° (WNW) 03:20:27 437.025 USB, Beacon 2401.1428
Gurwin Techsat 1B 31 Oct 03:10:32 03:14:46 24° 93° (E) 03:18:59 435.225 FM
TMSAT-1 31 Oct 03:17:33 03:21:27 20° 92° (E) 03:25:19 436.925 FM
Sapphire 31 Oct 03:25:00 03:30:25 88° 121° (ESE) 03:35:53 437.095 MHz 1200 baud AX-25 AFSK
Uribyol 2 31 Oct 03:42:00 03:47:15 84° 104° (ESE) 03:52:26 436.500 FM
PCSat 31 Oct 03:46:53 03:52:14 60° 305° (NW) 03:57:37 145.825 MHz
ITAMSAT 1 31 Oct 03:49:49 03:55:04 88° 285° (WNW) 04:00:17 435.822 SSB
AO-Echo 31 Oct 03:49:55 03:55:13 67° 287° (WNW) 04:00:27 ?
RS-15 31 Oct 04:02:44 04:12:14 31° 22° (NNE) 04:21:58 29.354 - 29.394 USB, Beacon 29.352 USB
Oscar 19 31 Oct 04:03:01 04:07:24 30° 295° (WNW) 04:11:47 437.125 CW, 437.150 USB
AO-7 31 Oct 04:04:53 04:09:59 17° 88° (E) 04:15:03 29.400 - 29.500 MHz
AO-27 31 Oct 04:37:44 04:42:26 34° 294° (WNW) 04:47:06 436.795 MHz FM
JAS-1B 31 Oct 04:45:26 04:51:05 28° 298° (WNW) 04:57:33 435.800 - 435.900 CW/SSB
Gurwin Techsat 1B 31 Oct 04:49:52 04:54:59 48° 290° (WNW) 05:00:03 435.225 FM
Oscar 16 31 Oct 04:51:52 04:53:51 12° 304° (NW) 04:55:50 437.025 USB, Beacon 2401.1428
TMSAT-1 31 Oct 04:56:32 05:01:43 56° 289° (WNW) 05:06:52 436.925 FM
Sapphire 31 Oct 05:10:42 05:14:35 20° 321° (NW) 05:18:30 437.095 MHz 1200 baud AX-25 AFSK
OPAL 31 Oct 05:15:07 05:20:07 59° 69° (ENE) 05:25:05 ?
Uribyol 2 31 Oct 05:23:11 05:26:01 15° 302° (WNW) 05:28:50 436.500 FM
ITAMSAT 1 31 Oct 05:31:15 05:33:47 14° 303° (WNW) 05:36:19 435.822 SSB
AO-Echo 31 Oct 05:31:52 05:32:58 11° 306° (NW) 05:34:04 ?
PCSat 31 Oct 05:33:57 05:36:49 14° 327° (NNW) 05:39:42 145.825 MHz
STRAND 1 31 Oct 05:35:21 05:37:24 12° 56° (NE) 05:39:26 ?
Uosat F 31 Oct 05:40:52 05:45:53 60° 102° (ESE) 05:50:51 435.120 FM
JAS-2 31 Oct 05:54:20 06:01:23 35° 93° (E) 06:08:12 435.800 - 435.900 CW/SSB, 435.910 FM
AO-7 31 Oct 05:55:35 06:03:58 82° 108° (ESE) 06:12:20 29.400 - 29.500 MHz
Saudisat 1A 31 Oct 06:08:22 06:12:21 35° 117° (ESE) 06:16:23 436.775 MHz
RS-15 31 Oct 06:15:43 06:26:53 73° 51° (NE) 06:38:30 29.354 - 29.394 USB, Beacon 29.352 USB
OPAL 31 Oct 06:55:51 06:59:21 19° 266° (W) 07:02:51 ?
Hamsat 31 Oct 07:10:25 07:14:39 80° 102° (ESE) 07:18:54 145.90 MHz
STRAND 1 31 Oct 07:10:36 07:15:45 81° 74° (ENE) 07:20:56 ?
Uosat F 31 Oct 07:20:41 07:24:13 19° 299° (WNW) 07:27:44 435.120 FM
JAS-2 31 Oct 07:38:59 07:46:38 57° 292° (WNW) 07:54:06 435.800 - 435.900 CW/SSB, 435.910 FM
MaSat-1 31 Oct 07:39:46 07:42:00 26° 56° (NE) 07:44:06 437.345 MHz
Saudisat 1A 31 Oct 07:48:03 07:51:57 31° 315° (NW) 07:55:54 436.775 MHz
AO-7 31 Oct 07:49:23 07:55:54 27° 308° (NW) 08:02:27 29.400 - 29.500 MHz
SO-67 31 Oct 08:17:39 08:21:05 60° 100° (E) 08:24:29 435.3500 MHz FM
RS-15 31 Oct 08:28:48 08:38:27 35° 253° (WSW) 08:48:29 29.354 - 29.394 USB, Beacon 29.352 USB
HO-68 31 Oct 08:48:03 08:51:56 15° 87° (E) 08:55:48 435.675 MHz FM
Hamsat 31 Oct 08:48:45 08:49:59 11° 300° (WNW) 08:51:13 145.90 MHz
STRAND 1 31 Oct 08:53:12 08:55:34 13° 272° (W) 08:57:56 ?
JAS-2 31 Oct 09:26:21 09:30:02 14° 311° (NW) 09:33:44 435.800 - 435.900 CW/SSB, 435.910 FM
Oscar 11 31 Oct 09:52:26 09:54:13 12° 89° (E) 09:56:00 145.825 FM, Beacon 2401.500 USB
KITSAT 1 31 Oct 09:53:52 09:58:20 16° 100° (E) 10:02:48 435.175 FM
ISS 31 Oct 10:07:29 10:09:42 17° 134° (SE) 10:11:56 145.800 FM
Sapphire 31 Oct 10:28:49 10:32:50 20° 40° (NE) 10:36:50 437.095 MHz 1200 baud AX-25 AFSK
HO-68 31 Oct 10:33:27 10:40:42 82° 106° (ESE) 10:47:53 435.675 MHz FM
PCSat 31 Oct 10:50:13 10:54:55 29° 45° (NE) 10:59:35 145.825 MHz
UKube-1 31 Oct 10:51:20 10:55:37 52° 101° (E) 10:59:52 145.840 MHz, 145.915 MHz
ZACube-1 31 Oct 11:00:14 11:03:50 27° 95° (E) 11:07:24 437.345 MHz
Oscar 11 31 Oct 11:26:33 11:30:50 65° 286° (WNW) 11:35:06 145.825 FM, Beacon 2401.500 USB
SO-50 31 Oct 11:34:53 11:39:09 43° 118° (ESE) 11:43:32 436.795 FM
ISS 31 Oct 11:42:44 11:46:03 73° 331° (NNW) 11:49:24 145.800 FM
FUNcube-1 31 Oct 11:42:45 11:46:59 81° 103° (ESE) 11:51:08 145.950 - 145.970 MHz USB
KITSAT 1 31 Oct 11:44:21 11:52:24 77° 119° (ESE) 12:00:30 435.175 FM
